COSMOS 2251 DEB, 34969

Orbit data source: Space-Track

COSMOS 2251 DEB, 34969 is space debris in LEO originally from a launch on Wed, 16 Jun 1993 UTC launched from the Plesetsk Missile And Space Complex (PKMTR). The debris from Iridium 33, an American commercial communications satellite, has been tracked extensively since its accidental collision with the defunct Russian satellite Cosmos 2251 in 2009. This event, occurring at high speed in low Earth orbit (LEO), generated thousands of pieces of space debris, significantly increasing the risk of further collisions. The Iridium 33 debris cloud has impacted space traffic management and orbital debris mitigation strategies, making it a subject of ongoing study in space situational awareness.

Loading next visibility...
Identifier
34969, 1993-036AEY
Orbit
LEO
Country
Flag of CISCIS
Related business
Manufacturer
Unknown
Mission
Spacecraft
Bus & Motor
Unknown
Mass
Unknown
Launch date (UTC)
1993-06-16 (33 years ago)
Launch vehicle
Unknown
Launch site
Plesetsk Missile And Space Complex (PKMTR)
Object type
Payload
Rocket body
Debris
Shape & HBR
Unknown shape, 0.1 m
Radar Cross Section
Small (<0.1 m²)

Expand to show TLE details & history
Last TLE update: 4 days ago

TLE from 4 days ago
0 COSMOS 2251 DEB
1 34969U 93036AEY 26091.96377190  .00000807  00000-0  29840-3 0  9993
2 34969  74.0147 181.6955 0075731 287.5126  71.7759 14.32462338667152
Epoch: 2026-04-01T23:07Z
TLE epoch observation values (Epoch: 2026-04-01T23:07:49.892Z)
Latitude
0.00001°
Longitude
4.41856°
Altitude
769.525 km
Speed
7.478 km/s
True Right ascension
12h 06m 46s
True Declination
0° 00' 00"
Sunlit
Object was in full shadow at epoch
Visualization orbit readout
Latitude
Unknown
Longitude
Unknown
Altitude
Unknown
Speed
Unknown
Apparent Right ascension
Unknown
Apparent Declination
Unknown
Sunlit
N/A
Visualization observer readout
Local Sidereal Time
04:17:58
Azimuth
Unknown
Elevation
Unknown
Doppler factor
Unknown
Orbital elements
Apogee altitude
835.359 km
Perigee altitude
726.924 km
Semi-major axis
7,159.279 km
Eccentricity
0.00757
Inclination
74.0147°
RAAN
181.6955°
Arg. of periapsis
287.5126°
True anomaly
72.6026°
Mean anomaly
71.7759°
Eccentric anomaly
72.18901°
Mean motion
3.58294 °/min
Orbital period
100.48 mins
BSTAR
0.0002984

Documentation

Showing up to 5 results
|